Grand Rapids, MI (49501)

5:39 PM EST on February 13, 2016 (GMT -0500)
WXGR.NET | | Change Station
CLOSE
Current Station
Personal Weather Station
Location: Grand Rapids, MI
Elevation: 756 ft
Nearby Weather Stations

Elev 756 ft 42.96 °N, 85.63 °W | Updated 13 seconds ago

Overcast
Overcast
15.4 °F
Feels Like 7 °F
N
5.4
Wind Variable Wind from West
Gusts 5.4 mph

Today
High -- | Low -- °F
--% Chance of Precip.
Yesterday
High -- | Low -- °F
Precip. -- in
Pressure 30.51 in
Visibility 10.0 miles
Clouds Mostly Cloudy 3600 ft
Windchill 7 °F
Dew Point 4 °F
Humidity 60%
Rainfall 0.00 in
Snow Depth Not available.
7:43 AM 6:10 PM
Waxing Crescent, 35% visible
METAR KGRR 132153Z 30012KT 10SM BKN036 M09/M17 A3045 RMK AO2 SLP330 T10891172
Pressure 30.51 in
Visibility 10.0 miles
Clouds Mostly Cloudy 3600 ft
Windchill 7 °F
Dew Point 4 °F
Humidity 60%
Rainfall 0.00 in
Snow Depth Not available.
7:43 AM 6:10 PM
Waxing Crescent, 35% visible
METAR KGRR 132153Z 30012KT 10SM BKN036 M09/M17 A3045 RMK AO2 SLP330 T10891172

10-Day Weather Forecast

Almanac

Astronomy

Feb. 13, 2016 Rise Set
Actual Time
Civil Twilight
Nautical Twilight
Astronomical Twilight
Moon
Length of Visible Light
Length of Day
Tomorrow will be .
, % of the Moon is Illuminated

Today's Extremes

State Highs State Lows

Community

WunderPhotos

Upload Photos

1,892,688 photos uploaded!

WunderBlog® & News

Nearby

Air Quality

  Air Quality AQ Index Pollutant
Not available.

Snow Depth

Station Depth Elevation

Earthquake Activity

City Distance Mag. Time & Date
Minimum magnitude displayed is 2.5.

Coastal Water Temperatures

Place Temperature

Stations

Nearby Weather Stations

Station Location Temp. Windchill Dew Point Humidity Wind Precip. Elev Updated Type
                   

Watches & Warnings

There are currently no watches in effect.